Time,TemperatureF,DewpointF,PressureIn,WindDirection,WindDirectionDegrees,WindSpeedMPH,WindSpeedGustMPH,Humidity,HourlyPrecipIn,Conditions,Clouds,dailyrainin,SolarRadiationWatts/m^2,SoftwareType,DateUTC
2013-08-24 00:02:00,70.0,68.0,-100.00,North,353,2.0,5.0,94,0.00,,,0.01,0.000000,,2013-08-24 04:02:00,
2013-08-24 00:44:00,70.0,68.0,-100.00,North,353,2.0,5.0,94,0.00,,,0.01,0.000000,,2013-08-24 04:44:00,
2013-08-24 00:54:00,70.0,68.0,-100.00,North,353,2.0,5.0,94,0.00,,,0.01,0.000000,,2013-08-24 04:54:00,
2013-08-24 01:02:00,69.0,68.0,-100.00,NNW,345,2.0,4.0,95,0.00,,,0.01,0.000000,,2013-08-24 05:02:00,
2013-08-24 01:43:00,69.0,68.0,-100.00,NNW,345,2.0,4.0,95,0.00,,,0.01,0.000000,,2013-08-24 05:43:00,
2013-08-24 01:53:00,69.0,68.0,-100.00,NNW,345,2.0,4.0,95,0.00,,,0.01,0.000000,,2013-08-24 05:53:00,
2013-08-24 02:02:00,67.0,66.0,-100.00,South,172,1.0,2.0,98,0.00,,,0.01,0.000000,,2013-08-24 06:02:00,
2013-08-24 02:42:00,67.0,66.0,-100.00,South,172,1.0,2.0,98,0.00,,,0.01,0.000000,,2013-08-24 06:42:00,
2013-08-24 02:52:00,67.0,66.0,-100.00,South,172,1.0,2.0,98,0.00,,,0.01,0.000000,,2013-08-24 06:52:00,
2013-08-24 03:02:00,67.0,67.0,-100.00,North,9,2.0,3.0,99,0.00,,,0.01,0.000000,,2013-08-24 07:02:00,
2013-08-24 03:43:00,67.0,67.0,-100.00,North,9,2.0,3.0,99,0.00,,,0.01,0.000000,,2013-08-24 07:43:00,
2013-08-24 03:53:00,67.0,67.0,-100.00,North,9,2.0,3.0,99,0.00,,,0.01,0.000000,,2013-08-24 07:53:00,
2013-08-24 04:42:00,67.0,67.0,-100.00,NNW,332,1.0,3.0,100,0.00,,,0.01,0.000000,,2013-08-24 08:42:00,
2013-08-24 04:52:00,67.0,67.0,-100.00,NNW,332,1.0,3.0,100,0.00,,,0.01,0.000000,,2013-08-24 08:52:00,
2013-08-24 05:01:00,67.0,67.0,-100.00,NNW,332,1.0,3.0,100,0.00,,,0.01,0.000000,,2013-08-24 09:01:00,
2013-08-24 05:02:00,66.0,66.0,-100.00,NNE,15,2.0,4.0,100,0.00,,,0.01,0.000000,,2013-08-24 09:02:00,
2013-08-24 05:44:00,66.0,66.0,-100.00,NNE,15,2.0,4.0,100,0.00,,,0.01,0.000000,,2013-08-24 09:44:00,
2013-08-24 05:53:00,66.0,66.0,-100.00,NNE,15,2.0,4.0,100,0.00,,,0.01,0.000000,,2013-08-24 09:53:00,
2013-08-24 06:02:00,66.0,66.0,-100.00,NNE,22,1.0,4.0,100,0.00,,,0.01,0.000000,,2013-08-24 10:02:00,
2013-08-24 06:42:00,66.0,66.0,-100.00,NNE,22,1.0,4.0,100,0.00,,,0.01,0.000000,,2013-08-24 10:42:00,
2013-08-24 06:53:00,66.0,66.0,-100.00,NNE,22,1.0,4.0,100,0.00,,,0.01,0.000000,,2013-08-24 10:53:00,
2013-08-24 07:02:00,66.0,66.0,-100.00,NW,316,1.0,4.0,100,0.00,,,0.01,0.000000,,2013-08-24 11:02:00,
2013-08-24 07:42:00,66.0,66.0,-100.00,NW,316,1.0,4.0,100,0.00,,,0.01,0.000000,,2013-08-24 11:42:00,
2013-08-24 07:52:00,66.0,66.0,-100.00,NW,316,1.0,4.0,100,0.00,,,0.01,0.000000,,2013-08-24 11:52:00,
2013-08-24 08:02:00,67.0,66.0,-100.00,NNW,348,2.0,9.0,98,0.00,,,0.01,18.000000,,2013-08-24 12:02:00,
2013-08-24 08:42:00,67.0,66.0,-100.00,NNW,348,2.0,9.0,98,0.00,,,0.01,18.000000,,2013-08-24 12:42:00,
2013-08-24 08:52:00,67.0,66.0,-100.00,NNW,348,2.0,9.0,98,0.00,,,0.01,18.000000,,2013-08-24 12:52:00,
2013-08-24 09:02:00,68.0,66.0,-100.00,NE,44,2.0,10.0,93,0.00,,,0.01,67.000000,,2013-08-24 13:02:00,
2013-08-24 09:42:00,68.0,66.0,-100.00,NE,44,2.0,10.0,93,0.00,,,0.01,67.000000,,2013-08-24 13:42:00,
2013-08-24 09:52:00,68.0,66.0,-100.00,NE,44,2.0,10.0,93,0.00,,,0.01,67.000000,,2013-08-24 13:52:00,
2013-08-24 10:42:00,70.0,66.0,-100.00,North,352,3.0,7.0,87,0.00,,,0.00,150.000000,,2013-08-24 14:42:00,
2013-08-24 10:52:00,70.0,66.0,-100.00,North,352,3.0,7.0,87,0.00,,,0.00,150.000000,,2013-08-24 14:52:00,
2013-08-24 11:01:00,70.0,66.0,-100.00,North,352,3.0,7.0,87,0.00,,,0.00,150.000000,,2013-08-24 15:01:00,
2013-08-24 11:02:00,75.0,67.0,-100.00,East,84,4.0,10.0,75,0.00,,,0.00,432.000000,,2013-08-24 15:02:00,
2013-08-24 11:45:00,75.0,67.0,-100.00,East,84,4.0,10.0,75,0.00,,,0.00,432.000000,,2013-08-24 15:45:00,
2013-08-24 11:54:00,75.0,67.0,-100.00,East,84,4.0,10.0,75,0.00,,,0.00,432.000000,,2013-08-24 15:54:00,
2013-08-24 12:02:00,79.0,66.0,-100.00,NE,37,3.0,9.0,64,0.00,,,0.00,700.000000,,2013-08-24 16:02:00,
2013-08-24 12:42:00,79.0,66.0,-100.00,NE,37,3.0,9.0,64,0.00,,,0.00,700.000000,,2013-08-24 16:42:00,
2013-08-24 12:53:00,79.0,66.0,-100.00,NE,37,3.0,9.0,64,0.00,,,0.00,700.000000,,2013-08-24 16:53:00,
2013-08-24 13:02:00,79.0,68.0,-100.00,ENE,71,4.0,9.0,68,0.00,,,0.00,727.000000,,2013-08-24 17:02:00,
2013-08-24 13:23:00,79.0,68.0,-100.00,ENE,71,4.0,9.0,68,0.00,,,0.00,727.000000,,2013-08-24 17:23:00,
2013-08-24 13:34:00,79.0,68.0,-100.00,ENE,71,4.0,9.0,68,0.00,,,0.00,727.000000,,2013-08-24 17:34:00,
2013-08-24 13:42:00,79.0,68.0,-100.00,ENE,71,4.0,9.0,68,0.00,,,0.00,727.000000,,2013-08-24 17:42:00,
2013-08-24 13:52:00,79.0,68.0,-100.00,ENE,71,4.0,9.0,68,0.00,,,0.00,727.000000,,2013-08-24 17:52:00,
2013-08-24 14:42:00,82.0,68.0,-100.00,SE,130,3.0,10.0,63,0.00,,,0.00,869.000000,,2013-08-24 18:42:00,
2013-08-24 14:53:00,82.0,68.0,-100.00,SE,130,3.0,10.0,63,0.00,,,0.00,869.000000,,2013-08-24 18:53:00,
2013-08-24 15:01:00,82.0,68.0,-100.00,SE,130,3.0,10.0,63,0.00,,,0.00,869.000000,,2013-08-24 19:01:00,
2013-08-24 15:02:00,80.0,66.0,-100.00,NNE,14,3.0,7.0,63,0.00,,,0.00,607.000000,,2013-08-24 19:02:00,
2013-08-24 15:42:00,80.0,66.0,-100.00,NNE,14,3.0,7.0,63,0.00,,,0.00,607.000000,,2013-08-24 19:42:00,
2013-08-24 15:52:00,80.0,66.0,-100.00,NNE,14,3.0,7.0,63,0.00,,,0.00,607.000000,,2013-08-24 19:52:00,
2013-08-24 16:02:00,81.0,69.0,-100.00,SE,125,3.0,6.0,68,0.00,,,0.00,570.000000,,2013-08-24 20:02:00,
2013-08-24 16:22:00,81.0,69.0,-100.00,SE,125,3.0,6.0,68,0.00,,,0.00,570.000000,,2013-08-24 20:22:00,
2013-08-24 16:32:00,81.0,69.0,-100.00,SE,125,3.0,6.0,68,0.00,,,0.00,570.000000,,2013-08-24 20:32:00,
2013-08-24 16:42:00,81.0,69.0,-100.00,SE,125,3.0,6.0,68,0.00,,,0.00,570.000000,,2013-08-24 20:42:00,
2013-08-24 16:53:00,81.0,69.0,-100.00,SE,125,3.0,6.0,68,0.00,,,0.00,570.000000,,2013-08-24 20:53:00,
2013-08-24 17:02:00,81.0,68.0,-100.00,SE,125,3.0,6.0,65,0.00,,,0.00,513.000000,,2013-08-24 21:02:00,
2013-08-24 17:43:00,81.0,68.0,-100.00,SE,125,3.0,6.0,65,0.00,,,0.00,513.000000,,2013-08-24 21:43:00,
2013-08-24 17:55:00,81.0,68.0,-100.00,SE,125,3.0,6.0,65,0.00,,,0.00,513.000000,,2013-08-24 21:55:00,
2013-08-24 18:02:00,78.0,68.0,-100.00,South,174,3.0,7.0,72,0.00,,,0.00,239.000000,,2013-08-24 22:02:00,
2013-08-24 18:24:00,78.0,68.0,-100.00,South,174,3.0,7.0,72,0.00,,,0.00,239.000000,,2013-08-24 22:24:00,
2013-08-24 18:33:00,78.0,68.0,-100.00,South,174,3.0,7.0,72,0.00,,,0.00,239.000000,,2013-08-24 22:33:00,
2013-08-24 18:43:00,78.0,68.0,-100.00,South,174,3.0,7.0,72,0.00,,,0.00,239.000000,,2013-08-24 22:43:00,
2013-08-24 18:53:00,78.0,68.0,-100.00,South,174,3.0,7.0,72,0.00,,,0.00,239.000000,,2013-08-24 22:53:00,
2013-08-24 19:02:00,76.0,68.0,-100.00,ESE,121,2.0,6.0,76,0.00,,,0.00,84.000000,,2013-08-24 23:02:00,
2013-08-24 19:43:00,76.0,68.0,-100.00,ESE,121,2.0,6.0,76,0.00,,,0.00,84.000000,,2013-08-24 23:43:00,
2013-08-24 19:53:00,76.0,68.0,-100.00,ESE,121,2.0,6.0,76,0.00,,,0.00,84.000000,,2013-08-24 23:53:00,
2013-08-24 20:22:00,73.0,68.0,-100.00,SSE,155,2.0,6.0,83,0.00,,,0.00,52.000000,,2013-08-25 00:22:00,
2013-08-24 20:32:00,73.0,68.0,-100.00,SSE,155,2.0,6.0,83,0.00,,,0.00,52.000000,,2013-08-25 00:32:00,
2013-08-24 20:42:00,73.0,68.0,-100.00,SSE,155,2.0,6.0,83,0.00,,,0.00,52.000000,,2013-08-25 00:42:00,
2013-08-24 20:52:00,73.0,68.0,-100.00,SSE,155,2.0,6.0,83,0.00,,,0.00,52.000000,,2013-08-25 00:52:00,
2013-08-24 21:01:00,73.0,68.0,-100.00,SSE,155,2.0,6.0,83,0.00,,,0.00,52.000000,,2013-08-25 01:01:00,
2013-08-24 21:02:00,71.0,68.0,-100.00,NW,306,1.0,3.0,89,0.00,,,0.00,2.000000,,2013-08-25 01:02:00,
2013-08-24 21:43:00,71.0,68.0,-100.00,NW,306,1.0,3.0,89,0.00,,,0.00,2.000000,,2013-08-25 01:43:00,
2013-08-24 21:52:00,71.0,68.0,-100.00,NW,306,1.0,3.0,89,0.00,,,0.00,2.000000,,2013-08-25 01:52:00,
2013-08-24 22:02:00,69.0,67.0,-100.00,WSW,247,1.0,4.0,94,0.00,,,0.00,0.000000,,2013-08-25 02:02:00,
2013-08-24 22:42:00,69.0,67.0,-100.00,WSW,247,1.0,4.0,94,0.00,,,0.00,0.000000,,2013-08-25 02:42:00,
2013-08-24 22:52:00,69.0,67.0,-100.00,WSW,247,1.0,4.0,94,0.00,,,0.00,0.000000,,2013-08-25 02:52:00,
2013-08-24 23:02:00,-999.0,-99.9,-100.00,North,350,2.0,2.0,-999,-99.99,,,-99.99,0.000000,,2013-08-25 03:02:00,
2013-08-24 23:44:00,68.0,67.0,-100.00,North,350,2.0,2.0,98,0.00,,,0.00,0.000000,,2013-08-25 03:44:00,
2013-08-24 23:54:00,68.0,67.0,-100.00,North,350,2.0,2.0,98,0.00,,,0.00,0.000000,,2013-08-25 03:54:00,